EW1708 Weather Reports


Display with metric or nautical units.
time (UTC)temp
F
wind
direction
speed
MPH
gust
MPH
rain 1hr
in
rain 24hr
in
rain mn
in
humidity
%
barometer
mb
20260509183605 54 306 12.0 21.0 0.00 0.00 0.00 31 1015.2
20260509182618 54 293 11.0 21.0 0.00 0.00 0.00 34 1015.1
20260509181624 53 285 10.0 21.0 0.00 0.00 0.00 35 1015.0
20260509180640 53 0 9.0 20.0 0.00 0.00 0.00 35 1015.1
20260509175624 53 0 9.0 19.0 0.00 0.00 0.00 36 1015.1
20260509174604 52 0 9.0 21.0 0.00 0.00 0.00 36 1015.2
20260509173600 52 289 8.0 21.0 0.00 0.00 0.00 37 1015.3
20260509172522 51 320 9.0 22.0 0.00 0.00 0.00 39 1015.2
20260509171447 51 0 10.0 22.0 0.00 0.00 0.00 38 1015.2
20260509170504 50 277 7.0 17.0 0.00 0.00 0.00 41 1015.2
20260509165446 50 0 8.0 15.0 0.00 0.00 0.00 40 1015.1
20260509164446 50 0 7.0 17.0 0.00 0.00 0.00 39 1015.1
20260509163430 50 38 7.0 17.0 0.00 0.00 0.00 44 1015.2
20260509162402 49 0 7.0 17.0 0.00 0.00 0.00 43 1015.3
20260509161332 49 295 8.0 17.0 0.00 0.00 0.00 42 1015.3
20260509155207 48 0 6.0 12.0 0.00 0.00 0.00 47 1015.2
20260509151925 46 0 4.0 8.0 0.00 0.00 0.00 48 1015.1
20260509150932 46 306 3.0 7.0 0.00 0.00 0.00 52 1015.0
20260509145954 45 325 3.0 6.0 0.00 0.00 0.00 56 1015.0
20260509144944 44 0 2.0 6.0 0.00 0.00 0.00 61 1015.0
20260509143955 43 11 2.0 6.0 0.00 0.00 0.00 63 1014.9
20260509142923 42 317 3.0 6.0 0.00 0.00 0.00 66 1014.9
20260509141913 41 0 3.0 6.0 0.00 0.00 0.00 70 1014.9
20260509135752 38 315 4.0 7.0 0.00 0.00 0.00 78 1014.9
20260509133617 36 289 4.0 7.0 0.00 0.00 0.00 84 1014.7
20260509132630 35 298 4.0 7.0 0.00 0.00 0.00 84 1014.5
20260509130457 33 294 4.0 6.0 0.00 0.00 0.00 87 1014.3
20260509125423 32 309 4.0 6.0 0.00 0.00 0.00 88 1014.1
20260509124428 31 287 4.0 6.0 0.00 0.00 0.00 89 1014.0
20260509123348 30 295 4.0 6.0 0.00 0.00 0.00 89 1013.7
20260509122324 29 283 4.0 6.0 0.00 0.00 0.00 90 1013.6
20260509121306 28 280 3.0 5.0 0.00 0.00 0.00 89 1013.3
20260509120242 28 271 4.0 5.0 0.00 0.00 0.00 89 1013.2
20260509115308 27 287 3.0 6.0 0.00 0.00 0.00 89 1013.0
20260509114246 27 267 4.0 6.0 0.00 0.00 0.00 89 1012.8
20260509113222 28 280 4.0 5.0 0.00 0.00 0.00 88 1012.6
20260509112216 28 300 3.0 4.0 0.00 0.00 0.00 88 1012.4
20260509110024 30 341 4.0 7.0 0.00 0.00 0.00 87 1012.1
20260509104956 30 334 4.0 7.0 0.00 0.00 0.00 87 1012.0
20260509102833 31 347 4.0 9.0 0.00 0.00 0.00 86 1011.6
20260509101754 31 348 5.0 9.0 0.00 0.00 0.00 87 1011.5
20260509095551 32 351 5.0 8.0 0.00 0.00 0.00 86 1011.2
20260509094552 32 0 6.0 8.0 0.00 0.00 0.00 86 1011.2
20260509093531 32 10 5.0 8.0 0.00 0.00 0.00 87 1011.1
20260509091349 32 346 4.0 6.0 0.00 0.00 0.00 86 1010.7
20260509090333 33 355 4.0 7.0 0.00 0.00 0.00 87 1010.6
20260509085318 33 355 4.0 6.0 0.00 0.00 0.00 86 1010.5
20260509083136 34 0 4.0 6.0 0.00 0.00 0.00 85 1010.3
20260509082125 34 26 4.0 6.0 0.00 0.00 0.00 84 1010.1
20260509080025 35 9 5.0 8.0 0.00 0.00 0.00 84 1010.0
20260509075028 35 345 5.0 8.0 0.00 0.00 0.00 83 1009.8
20260509074025 35 9 5.0 8.0 0.00 0.00 0.00 82 1009.7
20260509070705 37 10 6.0 9.0 0.00 0.00 0.00 80 1009.3
20260509065650 38 18 6.0 9.0 0.00 0.00 0.00 80 1009.1
20260509064657 38 11 5.0 9.0 0.00 0.00 0.00 79 1009.0
20260509063659 39 9 4.0 7.0 0.00 0.00 0.00 78 1009.0
20260509061518 39 0 6.0 9.0 0.00 0.00 0.00 78 1008.8
20260509060445 40 18 5.0 7.0 0.00 0.00 0.00 77 1008.7
20260509054353 40 22 7.0 10.0 0.00 0.00 0.00 77 1008.3
20260509053316 40 0 5.0 9.0 0.00 0.00 0.00 76 1008.3
20260509050043 41 13 7.0 11.0 0.00 0.00 0.00 76 1008.0
20260509045055 40 0 5.0 9.0 0.00 0.00 0.00 78 1007.8
20260509044104 40 0 4.0 7.0 0.00 0.00 0.00 77 1007.7
20260509043053 41 0 4.0 8.0 0.00 0.00 0.00 78 1007.6
20260509042103 41 0 4.0 8.0 0.00 0.00 0.00 78 1007.5
20260509041054 41 0 4.0 6.0 0.00 0.00 0.00 78 1007.3
20260509040035 42 0 3.0 5.0 0.00 0.00 0.00 77 1007.2
20260509033910 45 0 5.0 7.0 0.00 0.00 0.00 75 1006.9
20260509032851 45 323 4.0 7.0 0.00 0.00 0.00 77 1006.7
20260509025640 47 341 3.0 4.0 0.00 0.00 0.00 71 1006.1
20260509024633 47 0 3.0 4.0 0.00 0.00 0.00 70 1006.0
20260509023630 48 345 3.0 5.0 0.00 0.00 0.00 69 1005.9
20260509022613 49 336 3.0 5.0 0.00 0.00 0.00 68 1005.7
20260509020452 51 13 3.0 5.0 0.00 0.00 0.00 65 1005.5
20260509015511 52 344 4.0 7.0 0.00 0.00 0.00 62 1005.5
20260509014523 53 11 3.0 7.0 0.00 0.00 0.00 61 1005.3
20260509013522 53 0 3.0 7.0 0.00 0.00 0.00 61 1005.3
20260509012525 53 338 4.0 9.0 0.00 0.00 0.00 61 1005.2
20260509010359 53 0 9.0 14.0 0.00 0.00 0.00 60 1005.0
20260509003214 53 15 11.0 18.0 0.00 0.00 0.00 59 1004.8
20260509002234 54 33 14.0 21.0 0.00 0.00 0.00 59 1004.7
20260509001259 54 38 16.0 27.0 0.00 0.00 0.00 58 1004.6
20260509000303 54 0 20.0 32.0 0.00 0.00 0.00 58 1004.6
20260508235257 55 20 22.0 32.0 0.00 0.00 0.00 57 1004.7
20260508234319 57 35 22.0 31.0 0.00 0.00 0.00 53 1004.5
20260508233257 59 10 24.0 33.0 0.00 0.00 0.00 48 1004.6
20260508232311 60 17 21.0 33.0 0.00 0.00 0.00 46 1004.2
20260508231253 61 5 22.0 33.0 0.00 0.00 0.00 45 1004.0
20260508230231 62 355 19.0 30.0 0.00 0.00 0.00 43 1003.6
20260508225219 62 355 23.0 34.0 0.00 0.00 0.00 44 1003.6
20260508224216 62 14 25.0 41.0 0.00 0.00 0.00 43 1003.3
20260508223229 65 5 25.0 41.0 0.00 0.00 0.00 36 1003.0
20260508222247 67 348 22.0 38.0 0.00 0.00 0.00 30 1002.2
20260508221300 69 327 19.0 33.0 0.00 0.00 0.00 26 1001.9
20260508212749 70 296 21.0 29.0 0.00 0.00 0.00 24 1001.7
20260508211759 70 290 17.0 29.0 0.00 0.00 0.00 25 1001.8
20260508210751 70 306 19.0 32.0 0.00 0.00 0.00 25 1001.9
20260508205713 70 292 18.0 32.0 0.00 0.00 0.00 25 1002.1
20260508204730 69 277 15.0 25.0 0.00 0.00 0.00 26 1002.2
20260508203726 70 326 12.0 22.0 0.00 0.00 0.00 25 1002.3
20260508202656 69 298 13.0 22.0 0.00 0.00 0.00 28 1002.6
20260508201649 69 351 17.0 29.0 0.00 0.00 0.00 27 1002.7
20260508200703 69 286 17.0 29.0 0.00 0.00 0.00 26 1002.9
20260508194518 69 280 15.0 24.0 0.00 0.00 0.00 27 1003.0
20260508193442 69 322 18.0 31.0 0.00 0.00 0.00 26 1003.1
20260508192444 68 275 19.0 31.0 0.00 0.00 0.00 28 1003.4
20260508191442 69 309 16.0 28.0 0.00 0.00 0.00 28 1003.4
20260508190453 68 302 17.0 29.0 0.00 0.00 0.00 29 1003.6